Tracking 30970 objects as of 3-Jul-2025
HD Live streaming from Space Station
objects crossing your sky now

DELTA 1 DEB

Track DELTA 1 DEB now!
10-day predictions


NORAD ID: 7160
Int'l Code: 1973-086DY
Perigee: 1,472.3 km
Apogee: 1,597.0 km
Inclination: 102.1 °
Period: 116.6 minutes
Semi major axis: 7905 km
RCS: 0.0715 m2 (small)
Launch date: November 6, 1973
Source: United States (US)
Launch site: AIR FORCE WESTERN TEST RANGE (AFWTR)

Note: This is SATELLITE DEBRIS
Your satellite tracking list
Your tracking list is empty




NASA's NSSDC Master Catalog

Two Line Element Set (TLE):
1 07160U 73086DY  25183.89105416  .00000063  00000-0  85362-3 0  9997
2 07160 102.0945 148.6454 0078869 276.0706 106.2042 12.35080435322660
Source of the keplerian elements: AFSPC